User: anonymous   Login
Location: Banksville Park
(38.5557°N, 75.1182°W)
Time: 00:30:39
(UTC+00:00)
Language:

CZ-4B R/B - Orbit

View from above orbital plane
View from above orbital plane
View from above satellite
View from above satellite

Ground track
Ground track

The orbit data is extracted from the following two-line orbital elements,

1 33410U 08053C   20336.53169294 +.00001646 +00000-0 +12260-3 0  9991
2 33410 097.8808 324.5165 0114890 278.4255 080.3958 14.99333887659801
Epoch (UTC): 01 December 2020 12:45:38
Eccentricity: 0.0114890
inclination: 97.8808°
perigee height: 489 km
apogee height: 649 km
right ascension of ascending node: 324.5165°
argument of perigee: 278.4255°
revolutions per day: 14.99333887
mean anomaly at epoch: 80.3958°
orbit number at epoch: 65980

The dashed part of the orbit path shows where the satellite is in the earth's shadow,  

DLR